Flag for U.S.A. Weather past 2 weeks in Winston-Salem, North Carolina, U.S.A.

Now
55 °F

Clear.


Feels Like: 55 °F
Forecast: 54 / 82 °F
Wind: No wind

Location: Smith Reynolds Airport

Current Time: May 24, 2015 at 7:35:12 AM

Latest Report: May 24, 2015 at 6:54 AM


Visibility: 10 mi

Pressure: 30.41 "Hg

Humidity: 80%

Dew point: 49 °F

Location of Winston-SalemLocation

Historic Weather in Winston-Salem — Graph

°F

Winston-Salem temperature yesterday

Maximum temperature yesterday: 77 °F (at 2:54 PM)
Minimum temperature yesterday: 51 °F (at 5:54 AM)
Average temperature yesterday: 66 °F

Past Weeks' High & Low Weather Summary

 TemperatureHumidityPressure
High88 °F (May 20, 5:54 PM)96% (May 21, 5:54 AM)30.44 "Hg (May 21, 5:54 AM)
Low50 °F (May 22, 5:54 AM)23% (May 13, 5:54 PM)29.83 "Hg (May 21, 5:54 PM)
Average71 °F63%30.14 "Hg
* Reported May 9 5:54 AM — May 24 5:54 AM, Winston-Salem, Weather by CustomWeather, © 2015

Note: Actual official high and low records may vary slightly from our data, if they occured in-between our weather recording intervals... More about our weather records

Advertising

Winston-Salem weather history for previous 24 hours

 ConditionsComfort  
Time TempWeatherWind HumidityBarometerVisibility
5:54 AM
Sun, May 24
57 °FClear.3 mph74%30.38 "Hg10 mi
4:54 AM59 °FClear.3 mph69%30.37 "Hg10 mi
3:54 AM59 °FClear.No wind67%30.37 "Hg10 mi
2:54 AM60 °FClear.3 mph65%30.36 "Hg10 mi
1:54 AM61 °FClear.3 mph62%30.36 "Hg10 mi
12:54 AM61 °FClear.No wind65%30.36 "Hg10 mi
11:54 PM
Sat, May 23
63 °FClear.No wind60%30.37 "Hg10 mi
10:54 PM64 °FClear.No wind58%30.37 "Hg10 mi
9:54 PM66 °FClear.No wind54%30.35 "Hg10 mi
8:54 PM70 °FSunny.3 mph46%30.34 "Hg10 mi
7:54 PM74 °FSunny.5 mph37%30.34 "Hg10 mi
6:54 PM76 °FSunny.5 mph33%30.35 "Hg10 mi
5:54 PM77 °FSunny.6 mph33%30.35 "Hg10 mi
4:54 PM77 °FSunny.5 mph33%30.37 "Hg10 mi
3:54 PM76 °FSunny.3 mph35%30.39 "Hg10 mi
2:54 PM77 °FScattered clouds.9 mph35%30.39 "Hg10 mi
1:54 PM75 °FSunny.5 mph37%30.42 "Hg10 mi
12:54 PM73 °FSunny.5 mph40%30.43 "Hg10 mi
11:54 AM72 °FSunny.6 mph43%30.44 "Hg10 mi
10:54 AM70 °FSunny.10 mph44%30.44 "Hg10 mi
9:54 AM69 °FSunny.3 mph45%30.43 "Hg10 mi
8:54 AM66 °FSunny.3 mph52%30.41 "Hg10 mi
7:54 AM58 °FSunny.No wind72%30.40 "Hg10 mi
Weather by CustomWeather, © 2015

See weather overviewHow to use our weather pages